GW0234 Weather Reports


Display with metric or nautical units.
time (UTC)temp
F
wind
direction
speed
MPH
gust
MPH
rain 1hr
in
rain 24hr
in
rain mn
in
humidity
%
barometer
mb
20260502194601 41 161 1.0 8.0 0.00 0.17 0.01 73 1013.7
20260502193113 40 197 1.0 6.0 0.00 0.17 0.01 76 1013.8
20260502191556 40 141 1.0 6.0 0.00 0.17 0.01 75 1014.2
20260502190055 40 187 2.0 9.0 0.00 0.17 0.01 75 1014.4
20260502184604 41 134 2.0 7.0 0.00 0.24 0.01 75 1014.5
20260502183100 41 95 2.0 11.0 0.00 0.24 0.01 73 1014.4
20260502181556 42 170 3.0 7.0 0.00 0.24 0.01 74 1014.3
20260502163058 38 217 0.0 3.0 0.00 0.26 0.01 84 1014.3
20260502161556 38 144 2.0 4.0 0.00 0.26 0.01 84 1014.3
20260502151613 38 200 1.0 7.0 0.00 0.29 0.01 86 1014.0
20260502123057 37 0 0.0 3.0 0.00 0.28 0.00 91 1013.8
20260502121558 37 0 0.0 3.0 0.00 0.28 0.00 91 1013.7
20260502114606 37 0 0.0 1.0 0.00 0.28 0.00 92 1013.8
20260502113111 37 0 0.0 1.0 0.00 0.28 0.00 92 1013.7
20260502111603 36 0 0.0 0.0 0.00 0.28 0.00 92 1013.8
20260502110055 36 0 0.0 0.0 0.00 0.28 0.00 91 1013.8
20260502104609 36 0 0.0 1.0 0.00 0.28 0.00 91 1013.8
20260502103059 36 0 0.0 0.0 0.00 0.28 0.00 91 1013.7
20260502101610 36 0 0.0 1.0 0.00 0.28 0.00 91 1013.7
20260502100109 36 0 0.0 0.0 0.00 0.28 0.00 91 1013.6
20260502090107 36 0 0.0 1.0 0.00 0.28 0.00 91 1013.4
20260502070115 35 342 0.0 2.0 0.00 0.28 0.00 91 1013.5
20260502064558 35 0 0.0 0.0 0.00 0.28 0.00 91 1013.4
20260502063111 35 0 0.0 0.0 0.00 0.28 0.00 91 1013.4
20260502061558 34 0 0.0 0.0 0.00 0.28 0.00 90 1013.5
20260502060059 34 0 0.0 0.0 0.00 0.28 0.00 91 1013.6
20260502054606 34 0 0.0 0.0 0.00 0.28 0.00 90 1013.7
20260502053057 34 0 0.0 0.0 0.00 0.28 0.00 90 1013.7
20260502051557 34 0 0.0 0.0 0.00 0.28 0.00 89 1013.8
20260502050059 34 0 0.0 0.0 0.00 0.28 0.00 89 1013.8
20260502044556 35 0 0.0 0.0 0.00 0.28 0.00 89 1013.7
20260502043111 35 0 0.0 0.0 0.00 0.28 0.00 89 1013.7
20260502041622 36 0 0.0 1.0 0.00 0.28 0.00 88 1013.6
20260502040100 36 0 0.0 1.0 0.00 0.28 0.00 88 1013.7
20260502034555 37 0 0.0 1.0 0.00 0.28 0.28 89 1013.4
20260502033057 37 0 0.0 1.0 0.00 0.28 0.28 89 1013.5
20260502031557 38 0 0.0 1.0 0.00 0.28 0.28 89 1013.4
20260502030118 38 0 0.0 1.0 0.00 0.28 0.28 89 1013.3
20260502024605 38 0 0.0 1.0 0.00 0.28 0.28 89 1013.3
20260502023132 38 0 0.0 3.0 0.00 0.28 0.28 89 1013.3
20260502021556 38 0 0.0 3.0 0.00 0.28 0.28 89 1013.1
20260502020103 38 0 0.0 1.0 0.00 0.28 0.28 89 1013.0
20260502014606 38 0 0.0 2.0 0.00 0.28 0.28 88 1012.9
20260502013101 38 111 0.0 2.0 0.00 0.28 0.28 88 1012.7
20260502011606 38 0 0.0 2.0 0.00 0.28 0.28 88 1012.6
20260502010053 39 111 0.0 3.0 0.00 0.28 0.28 88 1012.4
20260502004558 39 171 0.0 2.0 0.00 0.28 0.28 88 1012.0
20260502003056 39 0 0.0 4.0 0.00 0.28 0.28 88 1011.6
20260502001600 40 207 2.0 11.0 0.00 0.28 0.28 88 1010.9
20260502000106 40 157 2.0 7.0 0.01 0.28 0.28 88 1011.0
20260501234555 41 134 2.0 7.0 0.02 0.28 0.28 88 1010.7
20260501233117 41 161 1.0 6.0 0.02 0.28 0.28 88 1010.5
20260501231625 42 240 0.0 6.0 0.02 0.28 0.28 89 1010.3
20260501230117 42 115 2.0 4.0 0.01 0.27 0.27 88 1010.1
20260501224606 42 152 1.0 5.0 0.00 0.26 0.26 88 1010.1
20260501223057 43 97 1.0 4.0 0.00 0.26 0.26 88 1010.0
20260501221611 43 49 0.0 2.0 0.01 0.26 0.26 88 1009.8
20260501220106 43 0 0.0 2.0 0.01 0.26 0.26 88 1009.8
20260501214555 43 13 0.0 4.0 0.01 0.26 0.26 88 1009.7
20260501213056 43 309 0.0 2.0 0.02 0.26 0.26 88 1009.7
20260501211558 43 30 1.0 4.0 0.03 0.25 0.25 87 1009.7
20260501210100 43 0 0.0 3.0 0.05 0.25 0.25 87 1009.7
20260501204600 43 69 0.0 3.0 0.06 0.25 0.25 87 1009.9
20260501203058 43 0 0.0 3.0 0.08 0.24 0.24 87 1010.0
20260501201557 43 327 0.0 6.0 0.08 0.22 0.22 87 1010.0
20260501200057 43 59 1.0 5.0 0.07 0.20 0.20 87 1010.0